Retour au catalogue

STARLINK-5929

ActifCommunicationsVLEO
NORAD 55959·PAYLOAD·🇺🇸 United States

Lancé Mar 17, 2023 depuis Vandenberg Space Force Base

Loading…

Prochains Passages (prochaines 24 heures)

TLE

FraisSource: CelesTrak SupGP

Époque: Sep 14, 2026, 21:38 UTC

1 55959C 23037AX  26257.90187500 -.00037950  00000+0 -31805-2 0  2571
2 55959  70.0003 147.3703 0002791 267.9736 164.6668 14.98349247    18

Suivez STARLINK-5929 en temps réel avec AllMySat

Download on the App Store